Location: Chiroubles
(46.1812°N, 4.6660°E)
Time: 17:08:47
(UTC+00:00)

Cosmos 1441 Rocket - Pass Details

Date: 15 August 2020
Orbit: 497 x 540 km, 81.1° (Epoch: 23 September)

Event Time Altitude Azimuth Distance (km) Brightness Sun altitude
Rises 19:28:36 0° 199° (SSW) 2,600 6.7 -6.9°
Reaches altitude 10° 19:30:45 10° 203° (SSW) 1,714 5.8 -7.3°
Maximum altitude 19:34:27 58° 283° (WNW) 593 3.9 -7.8°
Drops below altitude 10° 19:38:09 10° 3° (N) 1,713 6.2 -8.4°
Sets 19:40:18 0° 8° (N) 2,599 7.1 -8.7°
